Location: Banff
(51.1667°N, 115.5667°W)
Time: 15:07:05
(UTC+00:00)

Altair - Visible Passes

Search period start: 26 November 2020 00:00
Search period end: 06 December 2020 00:00
Orbit: 1502 x 1682 km, 47.2° (Epoch: 25 November)

Date Brightness Start Highest point End Pass type
(mag) Time Alt. Az. Time Alt. Az. Time Alt. Az.
26 Nov 9.4 03:46:15 10° S 03:46:30 11° S 03:46:30 11° S visible
26 Nov 9.2 10:12:05 16° SE 10:12:05 16° SE 10:13:37 10° SE visible
26 Nov 8.7 12:10:09 21° SSW 12:10:09 21° SSW 12:14:39 10° S visible
27 Nov 9.1 03:21:30 10° S 03:23:11 15° S 03:23:11 15° S visible
27 Nov 8.9 11:46:49 19° S 11:46:49 19° S 11:49:54 10° S visible
28 Nov 8.9 02:56:47 10° S 02:59:51 18° SSE 02:59:51 18° SSE visible
28 Nov 9.5 04:57:33 10° SW 04:57:54 11° SW 04:57:54 11° SW visible
28 Nov 9.1 11:23:31 15° S 11:23:31 15° S 11:25:07 10° S visible
29 Nov 8.8 02:32:07 10° S 02:36:29 19° SSE 02:36:29 19° SSE visible
29 Nov 9.1 04:32:31 10° SW 04:34:32 18° SW 04:34:32 18° SW visible
29 Nov 9.4 11:00:15 10° SSE 11:00:15 10° SSE 11:00:18 10° SSE visible
30 Nov 8.7 02:07:31 10° S 02:13:03 18° SE 02:13:03 18° SE visible
30 Nov 8.7 04:07:29 10° SW 04:11:07 25° SSW 04:11:07 25° SSW visible
01 Dec 8.7 01:43:00 10° SSE 01:48:22 17° SE 01:49:36 16° ESE visible
01 Dec 8.4 03:42:28 10° SW 03:47:39 32° SSW 03:47:39 32° SSW visible
02 Dec 8.8 01:18:33 10° SSE 01:23:22 15° SE 01:26:07 13° ESE visible
02 Dec 8.1 03:17:28 10° SW 03:24:09 38° S 03:24:09 38° S visible
02 Dec 9.3 05:20:42 10° WSW 05:22:11 16° WSW 05:22:11 16° WSW visible
03 Dec 9.0 00:54:15 10° SSE 00:58:23 14° SE 01:02:28 10° E visible
03 Dec 7.9 02:52:29 10° SSW 03:00:36 40° SSE 03:00:36 40° SSE visible
03 Dec 8.9 04:55:33 10° WSW 04:58:38 24° WSW 04:58:38 24° WSW visible
04 Dec 9.1 00:30:10 10° SE 00:33:24 12° SE 00:36:37 10° ESE visible
04 Dec 7.9 02:27:31 10° SSW 02:35:57 38° SE 02:36:59 37° SE visible
04 Dec 8.5 04:30:25 10° WSW 04:35:02 33° WSW 04:35:02 33° WSW visible
05 Dec 8.1 02:02:35 10° SSW 02:10:53 36° SE 02:13:22 31° ESE visible
05 Dec 8.1 04:05:17 10° WSW 04:11:24 44° SW 04:11:24 44° SW visible
